Погода в Барановичи

Погода в Барановичи : погода сейчас, прогноз погоды и архив. Всё, что Вы хотите узнать о погоде в Барановичи!

Хотите узнать прогноз погоды в Барановичи? Тогда Вам сюда: Погода в Барановичи

Поиск расширенной информации на нашем сайте:

Полезная информация: Перчатки рабочие ПВХ, рабочие перчатки из хб www.snab-opt.ru

Другие новости

Новости СМИ2

Главная страница сайта

Новости сайта

02.10.2013

Напоминаем, что на нашем новом сайте вы можете получить высокодетализированные прогнозы погоды по пунктам России, СНГ и мира (включающие важные для авиации метеовеличины, такие как направление и скорость ветра, видимость, явления погоды, количество и форма облачности, нижняя и верхняя граница облачности), а также ознакомиться с разнообразными материалами по авиационной метеорологии и подборкой полезных ссылок на эту тему.

Сайт Метеоцентр.Азия посвящён разработке технологий оптимизации авиаметеорологического обслуживания, включая проектирование и перспективное создание нескольких автоматизированных авиаметеорологических систем:
- система выпуска высокодетальных прогностических карт явлений погоды для нижнего воздушного пространства по России и ближнему зарубежью;
- система верификации прогнозов TAF (выпускаемых синоптиками официальных АМСГ РФ и ближнего зарубежья) и AUTOTAF (выпускаемых сайтом Метеоцентр.Азия) - выявление ошибок, онлайн-сопоставление с фактической погодой METAR, автоматическое внесение коррективов в прогнозы при резком отклонении фактической погоды от прогноза, подсчёт оправдываемости прогнозов по элементам и в целом;
- система обработки, анализа и отображения авиаметеорологической информации для применения провайдерами метеорологической информации.

Рекомендуем: ворота промышленные

Погода в Барановичи - сегодня

Время (UTC), дата Ветер
(°,м/с) 
Видим.   Явления Облачность Т
(°С)
Тd
(°С)
f(%) Тe
(°С)
Pmin
(гПа)
dP
(гПа)
Po
(мм)
O2
(г/м3)
Тmin Tmax R s Состояние
почвы
12 17.02.17 180 (Ю) 6000 м  дымка  10/10 300 м 
[Frnb]
+3.3 +0.4 81 +4  1017.5  -1.5  745  297           
15 17.02.17 190 (Ю) 6000 м  дымка  10/10 300 м 
[Frnb]
+3.7 +0.5 80 +5  1016.9  -0.6  745  296           
18 17.02.17 170 (Ю) 6000 м  дымка{дождь}  10/10 300 м 
[Frnb]
+2.6 +1 89 +3  1016.8  -0.2  745  297    +4.2  0.3  12   
21 17.02.17 220 (ЮЗ) 1500 м  слаб. дождь  10/10 100 м 
[Ns]
+1.5 +0.4 92 +2  1017.2  0.3  745  298           
00 18.02.17 280 (З) 1500 м  дымка{дождь}  10/10 100 м 
[Frnb]
+0.8 +0.3 96 1017.3  0.1  745  299           
03 18.02.17 270 (З) 1800 м  дымка  10/10 100 м 
[Frnb]
+1.1 +0.6 96 1017.4  0.1  745  299      10   
06 18.02.17 250 (З) 2000 м  дымка  10/10 100 м 
[Frnb]
+1 +0.5 96 -1  1018.5  1.1  746  299  +0.6    10  равномерный
мокрый или
старый снег
100% 
09 18.02.17 250 (З) 2500 м  дымка  10/10 100 м 
[Frnb]
+1.5 +0.7 94 1019.2  0.7  746  299           
12 18.02.17 250 (З) 3500 м  дымка  10/10 100 м 
[Frnb]
+1.9 +1.1 94 1019.6  0.5  747  299           
15 18.02.17 240 (ЮЗ) 4000 м  дымка  10/10 100 м 
[Frnb]
+1.7 +0.9 94 1020.2  0.5  747  299           
18 18.02.17 250 (З) 1400 м  дымка  10/10 100 м 
[Frnb]
+1.3 +1 98 1021.9  1.6  748  300    +1.9     
21 18.02.17 240 (ЮЗ) 1800 м  дымка{туман}  10/10 100 м 
[Frnb]
+1 +0.7 98 1022.5  0.6  749  300           
00 19.02.17 240 (ЮЗ) 3100 м  дымка{туман}  10/10 200 м 
[Frnb]
+1 +0.5 96 -1  1022.8  0.3  749  301           
03 19.02.17 230 (ЮЗ) 8000 м  дымка  10/10 200 м 
[Frnb]
+0.6 +0.1 96 1022.7  -0.2  749  301         
06 19.02.17 180 (Ю) 10 км    9/9 600 м 
[Sc]
+0.8 -0.6 90 -1  1022  -0.7  748  301  +0.6      равномерный
мокрый или
старый снег
100% 
09 19.02.17 210 (ЮЗ) 10 км    9/9 600 м 
[Sc]
+1.3 -0.7 86 -1  1021.6  -0.2  748  300           
12 19.02.17 230 (ЮЗ) 5{11}  10 км    9/9 1000 м 
[Sc]
+1.5 -1.3 82 -1  1020.3  -1.3  747  300           
15 19.02.17 200 (Ю) 4{10}  10 км    9/9 600 м 
[Sc]
+1.4 -1.5 81 -1  1019  -1.3  746  299           
18 19.02.17 210 (ЮЗ) 4{10}  10 км    9/9 600 м 
[Sc]
+1 -1.3 85 -1  1018.4  -0.6  746  299    +1.7     
21 19.02.17 220 (ЮЗ) 10 км    9/9 600 м 
[Sc]
+1.2 -2 79 -1  1017.5  -0.9  745  299           
00 20.02.17 200 (Ю) 10 км    9/9 600 м 
[Sc]
+1.2 -1.7 81 -1  1016.7  -0.8  744  299           
03 20.02.17 190 (Ю) 10 км    8/6 1000 м верхняя 
[Sc|Ci fib]
+1.3 -1.3 83 -1  1014.8  -1.7  743  298         
06 20.02.17 200 (Ю) 10 км    6/6 1000 м 
[Sc]
+0.2 -1.2 90 -2  1014.2  -0.7  743  299  +0.2      равномерный
мокрый или
старый снег
100% 
09 20.02.17 200 (Ю) 10 км    9/9 600 м 
[Sc]
+1.8 -0.4 85 1012.9  -1.2  742  297           
12 20.02.17 210 (ЮЗ) 10 км    9/9 600 м 
[Sc]
+2.5 +0.1 84 1010.5  -2.2  740  295           
Время (UTC), дата Ветер
(°,м/с) 
Видим.   Явления Облачность Т
(°С)
Тd
(°С)
f(%) Тe
(°С)
Pmin
(гПа)
dP
(гПа)
Po
(мм)
O2
(г/м3)
Тmin Tmax R s Состояние
почвы

Для получения пояснительной информации подведите курсор к названию столбца.

ПОГОДА в Барановичи - архив

Всё, что Вы хотите узнать о погоде в Барановичи - удобно и подробно!

Выберите нужную дату (начиная с 1 января 2015* года) и нажмите кнопку "Найти".
Будут отображены архивные сводки погоды по пункту Барановичи, начиная с указанной даты.


Отображать данные в формате CSV (для использования в таблицах Excel)


Внимание! Наш архив погоды предназначен исключительно для личного некоммерческого использования в познавательных целях. Если Вам необходимы официальные справки о состоянии погоды (для производственных, юридических, коммерческих и т.п. целей), обращайтесь в органы Росгидромета.

*Примечание: данная дата относится к архиву по метеостанциям СССР (Россия, СНГ, Балтия).
Архив по метеостанциям Зарубежной Европы и Азии (кроме Китая) хранится 10 дней, по другим регионам земного шара (Китай, Африка, Америка, Австралия, Океания) - 1 день.

Барановичи - район местоположения метеостанции


Название, широта, долгота, высота метеостанции:
Барановичи 53.1°ш. 26°д. 193 м над ур. моря [Беларусь]

Дополнительная информация

В oтличие oт бoльшинства пoгoдных сайтoв мы публикуем пoдрoбную метеoинфoрмацию в детальнoм прoфессиoнальнoм фoрмате.

Характеристики температуры и влажнoсти вoздуха измеряются на высoте 2 м в тени вдали oт зданий и деревьев.
Скoрoсть ветра измеряется на высoте 10 м (на урoвне рoста челoвека скoрoсть ветра ниже в 1.5-2 раза). Если метеoстанция нахoдится в гoрoде или в лесу, тo скoрoсть ветра занижена на 2-4 м/с пo сравнению с oткрытым местoм. Скoрoсть ветра над акватoриями крупных рек и oзёр, а также на вершинах хoлмoв на 2-5 м/с выше, чем в oбычных услoвиях.
Атмoсфернoе давление в разных тoчках местнoсти мoжет значительнo oтличаться oт давления на метеoстанции, в зависимoсти oт услoвий рельефа (при пoдъёме на 10 м давление пoнижается примернo на 1 мм рт.ст.).